Location: Newark
(46.7000°N, 60.6000°W)
Time: 07:35:28
(UTC+00:00)

Transit 2A Rocket - Pass Details

Date: 01 November 2020
Orbit: 589 x 914 km, 66.7° (Epoch: 02 December)

Event Time Altitude Azimuth Distance (km) Brightness Sun altitude
Rises 12:56:16 0° 214° (SW) 3,536 8.6 17.8°
Reaches altitude 10° 12:58:48 10° 215° (SW) 2,595 8.0 18.1°
Maximum altitude 13:04:54 83° 303° (WNW) 906 5.6 18.8°
Drops below altitude 10° 13:10:47 10° 33° (NNE) 2,500 7.5 19.4°
Sets 13:13:12 0° 34° (NE) 3,398 8.2 19.7°
